McGrath, AK

3:34 PM AKDT on July 27, 2017 (GMT -0800)
McGrath

Weather History for PAMC - January, 2014

Change the Weather History Date:

Saturday, January 4, 2014

  Actual Average Record
Temperature  
Mean Temperature 13 °F -7 °F  
Max Temperature 25 °F 2 °F 42 °F (1977)
Min Temperature 1 °F -15 °F -60 °F (1975)
Degree Days  
Heating Degree Days 52 72  
Month to date heating degree days 217 287  
Since 1 July heating degree days 5708 6524  
Cooling Degree Days 0 0  
Month to date cooling degree days 0 0  
Year to date cooling degree days 0 0  
Moisture  
Dew Point 10 °F    
Average Humidity 84    
Maximum Humidity 92    
Minimum Humidity 73    
Precipitation  
Precipitation 0.01 in 0.05 in 0.38 in (1967)
Month to date precipitation 0.37 0.17  
Year to date precipitation 0.37 0.17  
Snow  
Snow T in 0.60 in 5.90 in (1971)
Month to date snowfall 3.3 2.3  
Since 1 July snowfall 33.6 53.5  
Snow Depth 19.00 in    
Sea Level Pressure  
Sea Level Pressure 29.92 in    
Wind  
Wind Speed 2 mph (NE)    
Max Wind Speed 14 mph    
Max Gust Speed 19 mph    
Visibility 6 miles    
Events Fog , Snow    
T = Trace of Precipitation, MM = Missing Value Source: NWS Daily Summary

Daily Weather History Graph

Daily Weather History Graph

Search for Another Location

Airport or City:

Trip Planner

Search our weather history database for the weather conditions in past years. The results will help you decide how hot, cold, wet, or windy it might be!

Date:

Astronomy

Jan. 04, 2014 Rise Set
Actual Time 10:53 AM AKST 4:01 PM AKST
Civil Twilight 9:46 AM AKST 5:09 PM AKST
Nautical Twilight 8:42 AM AKST 6:12 PM AKST
Astronomical Twilight 7:46 AM AKST 7:09 PM AKST
Moon 11:28 AM AKST (1/4) 10:21 PM AKST (1/4)
Length of Visible Light 7h 23m
Length of Day
5h 08m
Waxing Crescent, 16% of the Moon is Illuminated
Jan 4
Waxing Crescent
Jan 7
First Quarter
Jan 15
Full
Jan 23
Last Quarter
Jan 30
New

Hourly Weather History & Observations

Time (AKST) Temp. Windchill Dew Point Humidity Pressure Visibility Wind Dir Wind Speed Gust Speed Precip Events Conditions
12:41 AM 24.1 °F 19.7 °F 21.0 °F 88% 30.19 in 10.0 mi South 3.5 mph - N/A   Overcast
12:53 AM 24.1 °F - 21.0 °F 88% 30.21 in 10.0 mi Calm Calm - N/A   Overcast
1:53 AM 24.1 °F - 19.9 °F 84% 30.19 in 10.0 mi Calm Calm - N/A   Overcast
2:09 AM 24.1 °F - 19.9 °F 84% 30.17 in 10.0 mi Calm Calm - N/A   Scattered Clouds
3:11 AM 18.0 °F - 15.1 °F 88% 30.16 in 1.8 mi Calm Calm - N/A   Partly Cloudy
3:23 AM 18.0 °F - 15.1 °F 88% 30.16 in 1.0 mi Calm Calm - N/A   Mist
3:25 AM 17.1 °F - 15.1 °F 92% 30.16 in 0.8 mi Calm Calm - N/A   Mist
3:45 AM 16.0 °F - 12.9 °F 88% 30.15 in 1.0 mi Calm Calm - N/A   Mostly Cloudy
3:53 AM 16.0 °F - 12.9 °F 88% 30.18 in 1.0 mi Calm Calm - N/A   Overcast
4:02 AM 16.0 °F - 12.9 °F 88% 30.15 in 0.2 mi Calm Calm - N/A Fog Light Freezing Fog
4:53 AM 15.1 °F - 12.0 °F 88% 30.15 in 0.5 mi Calm Calm - N/A Fog Light Freezing Fog
5:53 AM 12.0 °F 2.7 °F 10.0 °F 92% 30.11 in 0.5 mi NNW 5.8 mph - N/A Fog Light Freezing Fog
6:53 AM 12.9 °F - 9.0 °F 84% 30.08 in 0.2 mi Calm Calm - N/A Fog Light Freezing Fog
7:53 AM 8.1 °F - 5.0 °F 87% 30.05 in 0.5 mi Calm Calm - N/A Fog Light Freezing Fog
8:45 AM 6.1 °F - 3.0 °F 87% 30.00 in 1.2 mi Calm Calm - N/A   Overcast
8:51 AM 3.2 °F - 1.4 °F 92% 30.00 in 0.8 mi Calm Calm - N/A   Mist
8:53 AM 5.0 °F - 1.0 °F 84% 30.02 in 0.5 mi Calm Calm - N/A Fog Light Freezing Fog
9:27 AM 5.0 °F -4.1 °F 1.0 °F 84% 29.97 in 2.0 mi NNW 4.6 mph - N/A   Overcast
9:46 AM 5.0 °F - 1.9 °F 87% 29.96 in 5.0 mi Calm Calm - N/A   Mostly Cloudy
9:49 AM 3.2 °F - -0.4 °F 85% 29.96 in 2.5 mi Calm Calm - N/A   Scattered Clouds
9:53 AM 3.0 °F - -0.9 °F 84% 29.99 in 1.8 mi Calm Calm - N/A   Scattered Clouds
10:00 AM 3.0 °F - -0.9 °F 84% 29.95 in 3.0 mi Calm Calm - N/A   Partly Cloudy
10:53 AM 3.0 °F - -2.0 °F 80% 29.95 in 10.0 mi Calm Calm - N/A   Clear
11:53 AM 3.0 °F - -2.0 °F 80% 29.91 in 10.0 mi Calm Calm - N/A   Mostly Cloudy
12:53 PM 3.9 °F - -0.9 °F 80% 29.87 in 10.0 mi Calm Calm - N/A   Mostly Cloudy
1:53 PM 7.0 °F - 1.9 °F 80% 29.83 in 10.0 mi Calm Calm - N/A   Mostly Cloudy
2:53 PM 15.1 °F - 10.9 °F 84% 29.78 in 10.0 mi Calm Calm - N/A   Mostly Cloudy
3:53 PM 19.9 °F 13.4 °F 15.1 °F 81% 29.73 in 10.0 mi East 4.6 mph - N/A   Mostly Cloudy
4:53 PM 19.9 °F 12.1 °F 16.0 °F 85% 29.69 in 10.0 mi NW 5.8 mph - N/A   Mostly Cloudy
5:53 PM 21.9 °F 17.2 °F 16.0 °F 78% 29.67 in 10.0 mi East 3.5 mph - N/A   Overcast
6:53 PM 21.0 °F 12.4 °F 16.0 °F 81% 29.65 in 10.0 mi East 6.9 mph - N/A   Overcast
7:37 PM 21.0 °F 12.4 °F 16.0 °F 81% 29.61 in 1.8 mi Variable 6.9 mph - 0.00 in Snow Light Snow
7:53 PM 21.0 °F 11.4 °F 16.0 °F 81% 29.63 in 3.0 mi East 8.1 mph - 0.01 in Snow Light Snow
8:26 PM 21.0 °F - 17.1 °F 85% 29.59 in 5.0 mi Calm Calm - 0.00 in Snow Light Snow
8:53 PM 19.9 °F - 15.1 °F 81% 29.61 in 10.0 mi Calm Calm - 0.00 in   Mostly Cloudy
9:53 PM 17.1 °F 11.7 °F 14.0 °F 88% 29.59 in 10.0 mi WNW 3.5 mph - N/A   Partly Cloudy
10:53 PM 17.1 °F - 12.9 °F 84% 29.57 in 10.0 mi Calm Calm - N/A   Overcast
11:53 PM 16.0 °F - 12.0 °F 84% 29.57 in 10.0 mi Calm Calm - N/A   Overcast